Change the Weather History Date:

Sunday, November 10, 2013

  Actual Average Record
Temperature  
Mean Temperature 80 °F 76 °F  
Max Temperature 85 °F 83 °F 88 °F (1987)
Min Temperature 75 °F 69 °F 48 °F (1913)
Degree Days  
Heating Degree Days 0 0  
Month to date heating degree days 0 0  
Since 1 July heating degree days 0 0  
Cooling Degree Days 15 11  
Month to date cooling degree days 145 115  
Year to date cooling degree days 4315 4187  
Growing Degree Days 28 (Base 50)    
Moisture  
Dew Point 70 °F    
Average Humidity 77    
Maximum Humidity 94    
Minimum Humidity 59    
Precipitation  
Precipitation 0.19 in 0.12 in 1.29 in (1978)
Month to date precipitation 0.75 1.32  
Year to date precipitation 60.77 57.91  
Snow  
Snow 0.00 in - - ()
Month to date snowfall 0.0  
Since 1 July snowfall 0.0  
Since 1 September snowfall 0.0  
Snow Depth 0.00 in    
Sea Level Pressure  
Sea Level Pressure 30.08 in    
Wind  
Wind Speed 8 mph (NE)    
Max Wind Speed 21 mph    
Max Gust Speed 24 mph    
Visibility 10 miles    
Events Rain    
T = Trace of Precipitation, MM = Missing Value Source: NWS Daily Summary

Daily Weather History Graph

Daily Weather History Graph

Search for Another Location

Airport or City:

Trip Planner

Search our weather history database for the weather conditions in past years. The results will help you decide how hot, cold, wet, or windy it might be!

Date:

Astronomy

Nov. 10, 2013 Rise Set
Actual Time 6:35 AM EST 5:34 PM EST
Civil Twilight 6:11 AM EST 5:58 PM EST
Nautical Twilight 5:44 AM EST 6:26 PM EST
Astronomical Twilight 5:16 AM EST 6:53 PM EST
Moon 1:00 PM EST (11/10) No Moon Set
Length of Visible Light 11h 46m
Length of Day
10h 58m
First Quarter, 55% of the Moon is Illuminated
Nov 10
First Quarter
Nov 17
Full
Nov 25
Last Quarter
Dec 2
New
Dec 9
First Quarter

Hourly Weather History & Observations

Time (EST) Temp. Heat Index Dew Point Humidity Pressure Visibility Wind Dir Wind Speed Gust Speed Precip Events Conditions
12:53 AM 75.0 °F - 73.0 °F 94% 30.07 in 10.0 mi ENE 9.2 mph - 0.13 in   Mostly Cloudy
1:53 AM 75.0 °F - 73.0 °F 94% 30.06 in 10.0 mi NE 5.8 mph - 0.01 in   Overcast
2:53 AM 75.9 °F - 73.0 °F 91% 30.06 in 9.0 mi NE 6.9 mph - 0.00 in Rain Light Rain
3:53 AM 75.9 °F - 72.0 °F 87% 30.05 in 10.0 mi NE 5.8 mph - 0.00 in   Overcast
4:53 AM 75.0 °F - 73.0 °F 94% 30.06 in 10.0 mi Calm Calm - 0.06 in   Overcast
5:53 AM 75.0 °F - 73.0 °F 94% 30.07 in 10.0 mi Calm Calm - 0.00 in   Overcast
6:53 AM 78.1 °F - 71.1 °F 79% 30.09 in 10.0 mi ENE 6.9 mph - 0.00 in   Overcast
7:53 AM 78.1 °F - 72.0 °F 81% 30.10 in 10.0 mi ENE 6.9 mph - N/A   Mostly Cloudy
8:53 AM 79.0 °F - 70.0 °F 74% 30.11 in 10.0 mi ENE 12.7 mph 21.9 mph N/A   Mostly Cloudy
9:53 AM 82.0 °F 85.9 °F 70.0 °F 67% 30.12 in 10.0 mi ENE 13.8 mph - N/A   Mostly Cloudy
10:53 AM 82.0 °F 85.9 °F 70.0 °F 67% 30.11 in 10.0 mi East 15.0 mph - N/A   Mostly Cloudy
11:53 AM 84.0 °F 87.8 °F 69.1 °F 61% 30.09 in 10.0 mi East 13.8 mph - N/A   Mostly Cloudy
12:53 PM 84.0 °F 87.8 °F 69.1 °F 61% 30.07 in 10.0 mi NE 11.5 mph - N/A   Mostly Cloudy
1:53 PM 84.0 °F 87.0 °F 68.0 °F 58% 30.06 in 10.0 mi East 11.5 mph 20.7 mph N/A   Mostly Cloudy
2:53 PM 82.9 °F 85.8 °F 68.0 °F 60% 30.04 in 10.0 mi ENE 11.5 mph - N/A   Mostly Cloudy
3:53 PM 82.9 °F 86.5 °F 69.1 °F 63% 30.05 in 10.0 mi ENE 13.8 mph - N/A   Mostly Cloudy
4:53 PM 81.0 °F 84.1 °F 69.1 °F 67% 30.05 in 10.0 mi NE 10.4 mph 17.3 mph N/A   Mostly Cloudy
5:53 PM 79.0 °F - 69.1 °F 72% 30.06 in 10.0 mi NE 11.5 mph 17.3 mph N/A   Scattered Clouds
6:53 PM 78.1 °F - 69.1 °F 74% 30.07 in 10.0 mi NE 6.9 mph - N/A   Scattered Clouds
7:53 PM 78.1 °F - 69.1 °F 74% 30.08 in 10.0 mi NE 5.8 mph - N/A   Scattered Clouds
8:53 PM 78.1 °F - 69.1 °F 74% 30.09 in 10.0 mi NE 4.6 mph - N/A   Scattered Clouds
9:53 PM 78.1 °F - 69.1 °F 74% 30.09 in 10.0 mi NNE 5.8 mph - N/A   Scattered Clouds
10:53 PM 77.0 °F - 69.1 °F 76% 30.09 in 10.0 mi NNE 3.5 mph - N/A   Partly Cloudy
11:53 PM 75.9 °F - 68.0 °F 76% 30.09 in 10.0 mi NE 3.5 mph - N/A   Partly Cloudy